Location: B?ogocice
(50.2413°N, 20.2361°E)
Time: 11:26:36
(UTC+00:00)

Cosmos 990 Rocket - Pass Details

Date: 15 June 2024
Orbit: 744 x 766 km, 74.0° (Epoch: 15 July)

Event Time Altitude Azimuth Distance (km) Brightness Sun altitude
Exits shadow 00:08:19 18° 226° (SW) 1,779 5.4 -13.9°
Maximum altitude 00:12:02 54° 299° (WNW) 903 4.4 -13.6°
Drops below altitude 10° 00:17:04 10° 17° (NNE) 2,272 7.9 -13.3°
Sets 00:19:30 0° 22° (NNE) 3,201 9.3 -13.2°
